Vorticity
8 8 9 9 10 11 11 12 13 14 13 12 10 9 7 7 6 6 5 4 3 3 3 3 3 3 2 2 3 2 1 3 4 4 6 6 6 6 5 5 5 4 4 4 5 4 4 3 4 5 8 11 15 21 25 26 23 18 15 12 10 12 15 15 13 12 10 6 3 3 3 5 6 7 8 10 12 14 18 20 14 7 7 10 9
9 8 7 7 8 8 9 10 10 11 12 13 14 13 11 10 9 9 8 7 7 6 5 3 3 3 2 2 3 1 2 4 3 3 4 5 5 6 6 6 6 6 5 5 5 5 4 4 3 3 5 7 10 14 20 25 27 24 19 16 13 11 11 13 14 14 14 10 6 5 3 3 4 6 7 8 10 11 12 18 21 17 11 10 10
10 10 9 8 8 8 8 8 7 8 9 10 12 13 13 13 12 11 10 10 10 10 8 7 6 5 4 4 3 2 3 3 1 1 3 4 4 5 5 6 6 6 6 6 6 5 5 6 5 4 4 4 7 9 13 19 25 27 24 20 17 14 11 11 12 14 16 14 11 8 5 4 3 4 5 7 9 9 9 11 17 21 19 16 14
9 10 10 10 9 9 8 8 7 7 7 7 8 9 10 12 11 11 11 12 12 12 11 10 9 8 7 7 6 5 5 4 2 3 3 3 4 4 4 6 7 7 7 6 7 6 6 6 6 6 5 3 4 6 9 13 18 23 27 25 21 18 15 12 11 12 14 16 15 11 8 6 5 4 4 5 7 9 9 8 9 15 19 20 19
8 8 9 9 8 8 8 7 7 7 7 7 7 7 8 9 9 9 11 11 11 11 12 12 11 10 10 10 9 8 7 6 5 5 4 4 3 3 3 6 7 7 7 7 7 7 8 8 6 5 6 5 4 4 5 9 12 16 22 25 25 22 19 15 12 10 11 13 15 14 11 8 6 5 5 5 5 6 8 10 8 9 12 16 20
7 8 7 7 7 7 7 7 6 7 7 7 8 8 7 7 7 8 9 8 9 9 10 11 11 10 10 10 10 10 10 9 8 8 7 6 5 3 3 5 7 7 7 6 6 6 7 8 7 6 6 6 5 5 4 5 8 11 15 20 25 26 24 21 16 13 12 11 13 15 14 12 8 6 6 6 6 5 6 8 9 8 8 10 15
4 5 5 6 7 7 6 6 7 7 6 6 7 8 7 7 7 7 7 8 9 9 8 8 9 9 10 10 9 10 10 11 10 10 9 9 8 7 6 6 7 8 8 6 5 4 6 7 7 7 9 9 7 7 6 4 5 7 9 13 18 23 27 26 22 18 14 12 12 13 15 15 12 8 6 6 7 7 6 7 8 8 7 7 10
4 4 4 5 6 6 5 6 7 7 7 7 7 8 8 8 7 7 8 9 11 10 9 8 8 8 9 9 8 9 9 10 10 10 10 10 10 9 8 8 8 9 9 8 6 5 5 6 6 7 9 12 10 8 7 6 5 6 7 8 12 16 21 26 27 24 19 15 13 12 13 15 14 12 9 7 6 7 6 6 8 8 8 7 7
5 5 5 5 5 5 5 6 6 6 7 7 7 8 8 7 6 6 8 9 10 9 9 9 9 9 9 9 8 8 8 9 9 8 8 8 9 9 9 10 11 12 11 8 6 6 6 6 5 5 6 10 13 10 8 8 7 6 6 6 7 10 13 17 23 27 27 23 18 14 13 13 14 14 12 9 7 7 6 5 6 8 8 8 7
6 6 6 6 6 6 6 7 7 7 7 7 7 8 8 7 6 6 7 9 11 10 8 8 8 9 9 9 9 10 10 9 9 8 7 7 8 8 9 10 11 13 13 10 8 9 9 6 4 3 3 7 14 13 9 7 7 6 6 6 5 6 8 9 12 18 24 27 27 23 18 15 14 13 13 13 10 8 7 6 6 6 7 8 8
8 8 8 7 8 8 8 8 8 8 8 7 7 8 8 8 7 7 6 7 9 10 9 9 8 8 8 9 11 13 13 13 12 11 12 11 10 8 8 9 10 11 13 12 11 11 11 9 7 5 2 5 12 15 9 6 7 7 6 6 5 4 5 6 7 9 12 17 23 27 26 23 20 15 13 14 14 11 8 6 6 6 7 8 8
9 9 8 8 9 9 9 9 9 9 10 10 10 10 9 9 8 8 7 6 7 8 9 9 8 9 12 13 14 14 15 15 15 14 13 11 10 9 7 7 7 7 8 10 11 11 11 11 10 8 5 4 9 13 11 6 6 7 6 6 5 5 4 4 6 7 8 9 12 17 22 25 26 24 17 14 14 14 11 9 6 5 6 8 8
8 8 8 8 8 8 9 9 9 10 10 11 11 11 10 10 10 9 8 7 7 8 8 8 8 10 13 13 12 12 12 13 13 13 12 11 11 10 9 9 8 8 9 10 11 10 10 12 13 12 9 7 7 10 11 8 5 4 4 5 5 5 4 4 4 5 6 7 7 9 13 16 22 29 27 18 15 15 14 12 10 6 6 7 7
7 8 8 8 9 9 9 9 9 8 8 8 8 8 9 10 10 9 8 8 9 9 9 8 9 12 12 9 8 9 10 10 11 12 12 12 12 11 11 10 10 10 10 10 9 9 9 11 12 12 11 9 7 7 9 10 7 3 2 4 5 4 3 4 4 4 5 6 6 7 10 12 17 28 32 26 19 16 15 14 13 10 6 6 6
9 9 10 11 11 12 12 10 9 8 7 7 7 8 10 11 11 10 8 7 8 9 9 10 11 12 9 6 6 8 9 9 10 11 12 12 11 10 10 9 8 7 7 6 6 8 10 11 12 12 11 10 8 6 7 9 10 6 2 1 3 4 4 3 3 3 4 6 6 6 9 15 21 30 36 32 23 19 18 15 14 14 10 7 7
15 14 13 13 13 11 10 9 9 8 8 7 7 8 9 10 11 9 7 7 8 9 10 11 11 10 7 5 5 7 8 8 8 9 11 11 12 11 9 8 7 7 7 7 7 7 9 11 12 13 14 13 11 8 7 9 10 9 4 2 3 4 4 3 2 2 2 4 5 6 9 17 27 35 41 37 24 19 20 18 14 14 15 12 10
12 11 10 10 10 8 8 9 10 10 10 10 10 10 10 11 11 8 7 9 12 12 11 11 12 10 7 5 5 5 6 5 5 6 6 7 9 10 11 11 10 10 10 11 10 9 8 8 10 12 14 16 15 11 9 9 10 8 5 3 3 4 4 2 -0 -0 1 2 3 4 8 19 31 39 43 39 26 17 18 22 19 14 14 17 16
8 8 7 7 8 7 7 10 11 12 13 15 15 14 13 16 18 16 13 14 15 12 9 10 11 10 8 6 5 5 4 4 3 3 3 4 6 7 9 11 10 9 9 9 11 13 12 10 9 9 11 15 18 15 11 10 10 10 9 6 4 5 6 2 -1 -2 -1 -0 1 1 6 20 36 43 42 36 27 18 15 20 22 16 11 16 19
8 8 7 7 8 8 8 9 10 10 11 13 14 14 13 16 21 22 18 14 11 8 7 7 8 7 7 7 5 5 5 5 4 3 3 3 4 5 7 9 9 10 11 10 9 11 14 14 12 9 8 12 18 20 16 12 12 13 14 10 7 8 7 2 -1 -2 -2 -2 -1 -2 5 21 38 45 42 32 25 20 16 18 22 19 13 14 18
8 8 8 7 7 8 8 8 8 8 9 9 9 10 11 12 15 17 14 9 6 6 6 5 5 5 5 5 4 4 5 5 5 4 3 3 4 5 6 6 6 8 12 13 10 9 10 12 15 15 10 8 15 21 20 15 12 14 15 13 10 10 7 1 -2 -2 -2 -2 -2 -2 5 21 37 44 40 31 23 22 19 17 19 19 15 14 16
7 8 9 9 8 7 7 8 8 7 8 7 6 7 8 9 8 8 7 6 6 5 4 3 3 3 3 3 3 2 3 4 5 4 3 2 3 6 8 6 4 5 10 13 12 10 7 8 14 19 16 10 12 20 23 19 13 13 15 13 12 10 6 1 -2 -2 -1 -2 -2 -1 6 21 36 41 35 28 23 22 21 17 17 20 18 15 15
7 8 9 10 9 7 5 6 7 7 7 7 7 7 6 6 6 6 5 6 6 5 4 3 2 2 3 3 2 2 2 2 3 5 6 3 2 5 8 9 5 3 7 11 12 11 7 5 11 17 17 14 14 18 24 21 15 13 14 12 11 9 5 1 -0 -1 -0 -0 -1 -0 6 20 34 37 30 25 22 21 21 18 17 19 19 17 15
8 8 8 8 9 8 7 6 7 7 7 7 7 8 7 6 6 7 6 6 5 4 3 3 3 3 3 3 3 3 3 2 2 4 6 6 4 3 7 11 8 3 5 9 11 10 7 6 10 13 14 15 16 19 23 22 15 13 13 10 9 8 4 2 2 1 1 2 0 0 6 19 33 34 25 21 22 21 20 18 16 17 19 18 16
7 7 8 8 7 8 8 7 7 6 6 7 7 8 7 6 6 7 7 7 6 4 4 4 4 4 3 3 4 4 4 5 4 4 5 8 7 4 6 11 8 4 6 10 9 9 9 8 10 11 11 14 19 21 24 22 15 12 12 9 7 8 5 3 3 2 2 2 2 1 5 17 31 33 23 18 21 22 20 18 16 16 18 18 16
7 7 8 7 7 7 7 7 7 7 7 9 9 8 5 4 6 6 5 6 7 6 5 4 3 4 4 5 6 7 8 9 8 6 5 7 7 7 9 11 7 4 8 10 8 9 11 11 11 11 9 12 20 24 25 21 14 12 11 8 5 7 5 3 4 3 2 3 3 1 4 13 27 33 24 16 18 22 21 17 15 15 17 18 16
7 7 7 8 10 10 10 9 9 10 10 11 13 12 6 5 9 10 7 6 7 8 8 7 7 8 9 9 11 10 8 7 9 10 10 10 10 10 11 10 7 7 9 8 6 8 10 11 15 15 9 10 20 27 26 21 14 11 10 6 4 5 5 4 4 3 3 4 3 2 3 8 20 30 27 16 15 22 23 19 16 15 17 18 16
7 8 9 9 9 9 10 10 10 9 9 9 10 11 9 7 11 13 10 6 8 13 17 17 16 14 13 13 12 9 8 12 17 18 16 13 10 10 12 11 8 9 10 6 4 7 10 12 19 19 9 8 20 28 24 18 14 11 8 5 4 4 4 4 4 4 4 5 3 2 3 6 13 25 28 19 13 18 24 21 17 15 15 17 17
8 8 8 9 10 10 10 9 9 8 8 8 8 10 11 10 9 11 11 10 12 16 16 14 13 13 13 13 13 12 14 19 20 17 13 10 8 9 13 12 9 11 11 5 4 8 9 11 20 21 9 6 19 28 24 17 14 10 7 5 4 4 4 4 5 5 5 6 5 2 3 5 9 18 27 23 13 14 22 23 19 15 14 15 16
5 6 8 9 10 9 8 8 8 7 7 8 10 12 12 10 9 11 12 12 12 12 10 9 10 12 13 13 14 14 13 11 11 12 11 10 9 10 11 10 12 15 10 3 6 11 8 8 18 18 5 2 15 26 25 19 14 10 7 5 4 3 3 5 6 6 6 6 6 4 3 4 7 13 23 25 16 11 17 23 21 17 14 14 14
5 7 9 9 9 10 10 9 8 9 10 12 12 11 10 10 12 12 11 9 10 12 11 9 10 11 11 11 13 13 9 8 10 12 11 10 11 12 12 10 12 16 11 4 8 12 7 6 12 10 0 1 12 22 25 23 18 12 8 5 3 2 3 5 5 6 8 6 5 5 4 3 6 11 19 24 19 12 12 18 21 18 15 17 16
7 7 8 9 11 12 11 10 12 14 15 14 12 10 10 11 12 12 9 8 10 11 9 8 10 11 13 13 12 11 10 10 11 9 9 12 15 15 13 7 9 21 23 12 7 9 7 6 8 5 2 5 11 17 23 25 21 15 9 5 3 2 3 5 5 7 10 8 4 4 5 3 3 9 16 22 22 16 12 15 20 18 14 15 16
6 7 7 8 10 11 11 13 13 12 12 12 11 12 12 11 10 10 11 12 12 9 7 8 10 11 11 9 8 9 11 12 10 8 10 12 10 9 9 6 7 17 19 9 5 7 6 6 9 9 6 7 10 14 21 24 22 17 11 6 3 2 2 4 5 7 10 9 4 3 5 4 1 4 12 21 24 19 13 13 18 19 15 12 13
4 5 6 8 12 14 14 15 18 20 19 16 13 14 16 15 12 10 9 10 10 8 8 9 9 8 8 7 7 11 13 14 12 11 12 13 11 10 12 9 5 5 5 7 13 13 5 4 11 12 8 7 8 11 18 24 24 19 13 8 4 2 2 3 5 7 10 9 6 4 4 4 2 1 8 20 25 20 15 13 15 18 18 14 13
6 7 9 13 17 16 14 19 26 25 16 8 8 11 14 13 11 9 8 7 6 5 7 9 9 8 8 9 11 14 14 12 13 13 13 12 11 10 10 10 8 7 7 10 14 12 5 5 11 12 11 9 7 8 15 23 27 23 16 10 6 2 2 3 4 7 10 10 7 4 4 5 3 -0 4 18 26 22 16 14 15 17 18 15 13
10 12 15 18 18 13 12 16 13 2 -6 -4 2 8 10 9 8 9 9 8 6 6 8 10 10 9 9 10 12 13 11 11 13 14 13 12 12 12 13 12 10 10 9 8 7 7 6 7 10 12 12 11 10 12 16 23 27 24 17 12 8 4 3 2 2 5 10 11 8 6 4 4 4 1 1 13 25 25 19 15 15 17 19 19 17
16 20 22 22 21 19 21 20 11 1 1 5 6 9 12 11 9 8 8 8 6 6 8 10 11 11 12 12 12 11 10 12 13 13 14 15 14 12 12 13 13 14 12 8 7 8 7 6 7 11 12 11 13 16 20 25 28 25 18 14 10 5 3 2 1 5 12 13 9 7 5 4 4 2 2 11 24 27 21 15 14 16 19 19 16
27 28 26 23 22 20 18 16 11 8 7 5 3 4 5 3 4 6 8 8 7 7 9 10 10 13 14 13 11 11 11 13 14 13 14 16 15 14 16 18 18 15 9 6 7 9 8 6 7 9 12 13 14 17 22 27 27 23 18 15 11 6 3 2 1 5 11 14 10 6 5 5 4 2 2 11 23 27 22 15 13 15 17 16 13
24 22 16 11 9 6 4 4 5 5 3 1 1 0 -2 -0 6 9 8 8 9 9 9 9 10 13 15 12 10 12 13 13 13 13 16 18 16 15 15 11 5 2 3 6 10 12 10 8 8 9 11 15 16 17 20 24 24 20 16 14 11 8 5 3 3 5 10 14 12 7 4 5 5 3 3 10 21 26 22 15 12 13 14 15 14
17 14 10 7 4 2 3 5 6 5 4 4 5 5 4 7 11 10 8 8 8 7 8 9 9 10 10 8 8 10 10 10 11 11 12 13 11 9 8 4 2 7 13 15 13 12 10 8 8 9 13 16 17 19 21 23 21 18 14 11 10 10 7 4 5 8 13 16 12 6 5 5 5 4 5 9 18 25 23 17 14 13 14 15 16
13 13 12 11 10 8 8 9 8 8 9 9 10 10 9 9 9 7 6 7 5 5 7 10 9 8 8 8 8 9 9 11 13 12 10 9 6 6 6 6 7 14 17 15 13 14 11 7 7 11 14 14 14 18 24 25 20 15 11 8 7 7 6 5 3 6 16 22 14 5 5 6 4 5 8 10 16 22 23 18 15 14 13 14 15
10 10 10 10 10 10 10 11 10 11 11 10 9 8 7 6 6 5 5 5 5 6 7 7 8 9 10 9 10 10 11 14 16 16 15 13 9 7 7 7 11 16 15 10 10 12 10 9 10 11 11 10 12 16 21 23 19 13 8 8 8 5 4 5 3 5 17 26 18 6 5 6 4 5 10 11 14 20 22 19 16 13 12 12 13
9 10 9 9 9 10 10 10 9 9 8 7 7 6 6 5 5 5 5 6 7 7 7 8 10 11 12 13 13 14 16 18 18 17 17 16 13 12 11 11 14 15 11 7 10 13 11 9 8 6 5 9 14 18 18 16 13 11 8 8 11 10 6 4 5 10 21 26 17 6 5 6 3 5 11 13 15 18 20 19 17 14 11 11 11
10 10 10 10 10 9 9 8 8 7 7 6 6 5 5 6 6 7 8 8 9 10 12 13 14 15 16 18 19 19 20 21 20 19 19 17 15 16 16 13 11 10 8 9 13 12 9 7 7 7 6 6 10 18 22 15 9 9 10 5 3 5 6 6 9 17 26 24 13 5 5 5 4 7 11 14 15 17 17 17 17 15 14 13 13
10 10 9 9 9 8 8 7 6 6 6 6 6 7 8 9 10 10 11 12 13 15 16 17 17 19 21 22 23 23 23 21 20 20 19 15 12 13 15 14 11 11 12 14 14 12 11 12 11 9 8 5 5 15 27 24 10 2 3 2 1 1 2 3 10 23 29 21 9 5 5 5 5 8 11 13 16 17 16 15 15 15 14 15 16
8 7 7 7 7 7 7 7 8 8 9 9 11 12 13 14 15 16 16 17 17 17 19 20 22 25 26 24 23 22 21 19 19 20 18 12 8 9 12 14 15 15 14 13 13 13 13 12 10 9 12 15 10 10 20 28 21 5 -5 -5 -1 1 0 2 14 29 31 17 6 4 5 6 8 9 9 12 16 18 16 15 15 15 15 15 16
7 8 8 8 9 9 10 11 12 13 14 15 15 16 16 17 18 19 19 20 20 20 22 25 26 26 25 23 22 22 20 18 17 18 17 13 7 3 4 9 15 19 18 14 9 4 -1 -1 2 4 7 12 11 6 10 22 26 18 5 -1 1 6 8 10 21 32 27 12 4 4 5 6 9 10 9 11 16 18 18 16 15 15 15 16 15
12 12 13 13 14 14 15 16 16 17 17 17 18 19 20 20 21 20 20 21 22 23 24 24 22 19 17 16 16 17 18 18 17 18 18 16 12 8 6 4 5 10 17 19 16 15 16 18 18 14 9 7 7 8 10 14 18 22 23 20 15 14 12 13 22 32 25 9 2 4 5 6 9 9 9 12 15 17 19 18 15 15 17 17 16
14 14 15 16 16 16 17 17 18 19 20 20 21 22 22 21 20 20 19 19 19 18 17 16 14 11 9 9 9 8 8 10 12 13 14 15 14 16 18 17 11 7 7 9 11 15 19 18 15 14 15 12 7 6 11 12 11 18 31 33 21 9 7 14 26 32 22 7 0 2 4 6 8 9 10 13 16 17 19 19 17 16 16 16 14
15 16 16 17 18 19 21 21 21 20 20 19 18 18 18 16 15 14 14 14 14 13 11 10 9 9 7 5 5 5 5 6 7 9 10 10 9 8 11 16 17 14 10 9 8 6 4 5 9 14 18 19 17 13 12 10 6 12 29 36 23 9 12 25 31 27 16 5 0 2 4 6 8 9 12 15 18 18 19 19 18 16 15 14 12
18 19 19 19 20 20 19 18 16 15 14 14 15 14 13 13 12 12 13 14 14 13 12 11 10 11 12 11 11 11 10 9 9 11 11 11 11 8 6 7 10 13 14 15 16 15 14 16 18 13 9 15 25 29 25 21 15 13 22 27 20 12 19 28 27 20 12 4 -1 1 4 5 6 9 12 16 20 20 18 18 19 18 14 11 10
17 16 15 14 14 13 12 10 9 10 10 12 12 12 11 11 12 12 13 14 15 16 18 17 16 15 15 16 16 16 15 13 11 11 11 13 15 16 16 15 15 17 18 17 19 23 25 24 23 21 19 20 25 30 34 35 26 16 12 11 8 10 22 30 25 16 9 2 -2 1 5 4 4 7 11 15 21 23 21 19 19 17 13 11 12
Height
5797 5795 5794 5793 5792 5791 5789 5788 5787 5786 5785 5783 5782 5780 5778 5776 5775 5774 5773 5772 5770 5769 5767 5766 5765 5764 5762 5761 5760 5758 5757 5756 5754 5753 5752 5750 5749 5747 5746 5745 5743 5741 5740 5738 5736 5734 5732 5731 5729 5727 5725 5723 5721 5719 5718 5717 5716 5716 5716 5716 5716 5716 5716 5716 5715 5715 5717 5718 5718 5718 5718 5719 5719 5719 5720 5720 5721 5721 5721 5721 5722 5724 5726 5727 5729
5796 5795 5794 5792 5791 5790 5788 5787 5786 5785 5783 5782 5781 5779 5777 5775 5774 5772 5771 5770 5768 5767 5766 5765 5763 5762 5761 5760 5758 5757 5756 5754 5753 5752 5750 5749 5748 5746 5745 5743 5742 5740 5738 5736 5735 5733 5731 5729 5727 5726 5724 5722 5720 5717 5715 5714 5713 5712 5712 5712 5712 5712 5712 5712 5711 5711 5712 5713 5714 5714 5714 5715 5715 5716 5717 5717 5717 5717 5717 5717 5718 5720 5722 5723 5724
5795 5794 5793 5792 5790 5789 5787 5786 5785 5783 5782 5781 5779 5778 5776 5775 5773 5771 5770 5768 5766 5765 5764 5763 5761 5760 5759 5758 5757 5755 5754 5752 5751 5750 5749 5747 5746 5745 5743 5742 5740 5738 5736 5735 5733 5731 5729 5728 5726 5724 5722 5720 5718 5716 5714 5712 5710 5709 5708 5708 5708 5708 5709 5708 5708 5708 5708 5709 5710 5710 5710 5711 5711 5712 5713 5713 5713 5713 5713 5714 5714 5715 5717 5718 5720
5795 5793 5792 5790 5789 5788 5787 5785 5783 5782 5780 5779 5778 5777 5775 5773 5772 5770 5768 5766 5765 5763 5762 5760 5759 5758 5757 5756 5755 5753 5751 5750 5749 5748 5746 5745 5743 5742 5741 5739 5738 5736 5734 5733 5731 5729 5728 5726 5724 5722 5721 5719 5717 5715 5713 5711 5708 5706 5705 5704 5704 5704 5705 5705 5704 5704 5704 5704 5706 5706 5706 5707 5707 5708 5709 5709 5709 5709 5709 5710 5710 5711 5712 5713 5714
5794 5792 5791 5789 5788 5786 5785 5783 5782 5780 5779 5777 5776 5775 5773 5772 5770 5768 5767 5765 5763 5762 5760 5758 5757 5755 5754 5753 5752 5751 5749 5747 5746 5745 5744 5742 5741 5740 5738 5737 5735 5734 5732 5730 5729 5727 5725 5724 5722 5720 5718 5717 5715 5713 5712 5709 5707 5705 5703 5702 5701 5700 5700 5701 5701 5700 5700 5700 5701 5702 5703 5703 5703 5704 5705 5705 5705 5705 5705 5706 5707 5707 5708 5708 5709
5793 5791 5790 5788 5787 5785 5783 5782 5780 5779 5777 5776 5774 5773 5771 5770 5768 5767 5765 5764 5762 5760 5758 5757 5755 5753 5752 5750 5749 5749 5748 5746 5744 5742 5741 5740 5738 5737 5735 5734 5733 5731 5730 5728 5726 5725 5723 5721 5720 5718 5716 5715 5713 5711 5710 5708 5706 5704 5701 5700 5698 5697 5697 5697 5697 5697 5697 5697 5697 5698 5698 5699 5699 5699 5700 5700 5700 5700 5700 5701 5702 5703 5704 5704 5704
5791 5790 5788 5787 5785 5784 5782 5781 5779 5777 5776 5774 5772 5771 5770 5768 5767 5765 5763 5762 5760 5758 5757 5755 5753 5751 5750 5748 5747 5746 5745 5744 5742 5740 5738 5737 5736 5734 5733 5731 5730 5728 5727 5725 5724 5722 5720 5719 5717 5716 5714 5712 5711 5709 5707 5706 5704 5702 5700 5698 5696 5695 5694 5693 5693 5694 5694 5693 5693 5694 5694 5695 5695 5695 5695 5696 5696 5696 5696 5696 5697 5698 5699 5700 5701
5790 5788 5787 5785 5784 5782 5780 5779 5777 5776 5774 5772 5771 5769 5767 5766 5764 5763 5761 5759 5758 5756 5755 5753 5751 5749 5747 5745 5744 5742 5741 5740 5739 5738 5736 5735 5733 5732 5730 5729 5727 5725 5723 5722 5721 5719 5718 5716 5714 5713 5711 5710 5708 5707 5705 5703 5702 5700 5698 5696 5695 5693 5692 5691 5690 5690 5690 5690 5689 5690 5690 5690 5690 5690 5691 5691 5691 5691 5691 5691 5692 5693 5694 5695 5696
5788 5786 5785 5784 5782 5780 5778 5776 5775 5773 5772 5770 5769 5767 5765 5764 5762 5760 5759 5757 5755 5754 5752 5751 5749 5747 5745 5743 5741 5739 5738 5737 5736 5735 5733 5731 5730 5728 5727 5726 5724 5722 5720 5719 5717 5716 5714 5713 5711 5710 5708 5707 5706 5704 5703 5701 5699 5698 5696 5695 5693 5691 5690 5689 5688 5687 5686 5686 5686 5685 5685 5685 5685 5685 5686 5686 5686 5686 5687 5687 5687 5687 5689 5690 5691
5786 5784 5783 5781 5780 5778 5776 5774 5772 5771 5769 5767 5766 5764 5763 5761 5759 5758 5756 5755 5753 5751 5750 5748 5746 5744 5743 5741 5739 5737 5735 5733 5732 5731 5730 5728 5727 5725 5724 5722 5721 5719 5717 5716 5714 5713 5711 5709 5708 5707 5705 5704 5703 5701 5700 5698 5697 5695 5694 5692 5691 5689 5688 5686 5685 5684 5683 5683 5682 5681 5681 5680 5680 5680 5680 5680 5680 5681 5681 5682 5682 5682 5683 5685 5685
5783 5782 5780 5779 5777 5775 5774 5772 5770 5768 5766 5764 5762 5760 5759 5758 5756 5755 5753 5751 5750 5748 5747 5745 5744 5742 5740 5738 5736 5735 5733 5731 5729 5728 5727 5725 5724 5722 5721 5719 5718 5716 5715 5713 5711 5709 5707 5706 5704 5703 5702 5701 5700 5698 5697 5695 5694 5692 5691 5689 5688 5687 5685 5684 5683 5682 5681 5680 5678 5677 5676 5676 5675 5675 5675 5674 5674 5675 5675 5676 5677 5677 5678 5679 5680
5780 5779 5778 5776 5774 5773 5771 5769 5767 5765 5764 5762 5760 5758 5756 5755 5753 5752 5750 5748 5747 5745 5743 5742 5740 5739 5737 5735 5733 5731 5730 5728 5726 5725 5723 5722 5721 5719 5718 5716 5714 5713 5711 5710 5708 5706 5704 5702 5701 5700 5698 5697 5696 5695 5693 5692 5691 5689 5688 5686 5685 5684 5682 5681 5680 5678 5677 5676 5675 5673 5672 5671 5670 5669 5668 5668 5668 5668 5669 5670 5670 5671 5672 5673 5674
5777 5776 5774 5772 5771 5769 5767 5766 5764 5762 5760 5759 5757 5756 5754 5752 5751 5749 5748 5746 5744 5742 5741 5739 5737 5736 5734 5733 5731 5729 5727 5725 5724 5722 5720 5719 5717 5716 5714 5712 5711 5709 5708 5706 5704 5703 5701 5699 5697 5695 5694 5693 5692 5691 5690 5689 5687 5686 5684 5683 5682 5680 5679 5678 5676 5675 5674 5672 5671 5669 5667 5666 5665 5663 5661 5661 5661 5661 5662 5663 5664 5665 5666 5667 5668
5774 5773 5771 5769 5768 5766 5764 5762 5761 5759 5757 5756 5754 5753 5751 5750 5748 5747 5745 5743 5742 5740 5738 5736 5734 5733 5731 5730 5728 5726 5724 5722 5721 5719 5717 5716 5714 5713 5711 5709 5707 5706 5704 5703 5701 5700 5698 5695 5693 5691 5690 5688 5688 5687 5686 5685 5684 5682 5681 5679 5678 5676 5675 5674 5673 5671 5670 5668 5667 5665 5662 5660 5658 5656 5654 5654 5654 5654 5654 5655 5657 5658 5659 5660 5662
5773 5771 5769 5767 5765 5763 5762 5760 5758 5756 5754 5753 5751 5749 5748 5747 5745 5743 5742 5740 5738 5737 5735 5733 5731 5730 5728 5727 5725 5723 5720 5719 5717 5715 5714 5713 5711 5709 5708 5706 5704 5702 5701 5700 5698 5696 5694 5692 5690 5687 5685 5684 5682 5682 5681 5680 5679 5678 5677 5675 5674 5673 5672 5670 5669 5668 5666 5664 5662 5659 5657 5653 5650 5648 5646 5645 5646 5647 5647 5648 5649 5651 5652 5654 5655
5771 5769 5766 5765 5763 5761 5759 5758 5756 5754 5752 5749 5747 5746 5744 5743 5742 5740 5738 5737 5735 5733 5732 5730 5728 5727 5725 5723 5722 5720 5718 5716 5714 5712 5711 5709 5708 5706 5705 5703 5701 5699 5697 5696 5694 5693 5691 5689 5687 5684 5682 5679 5678 5677 5676 5675 5675 5674 5672 5671 5670 5669 5668 5666 5665 5663 5661 5659 5657 5654 5651 5646 5642 5639 5637 5637 5637 5638 5639 5641 5642 5643 5646 5647 5648
5768 5766 5764 5763 5761 5759 5757 5755 5753 5751 5749 5747 5744 5742 5741 5739 5738 5736 5734 5733 5731 5729 5728 5727 5725 5724 5722 5720 5719 5717 5715 5713 5711 5709 5708 5706 5705 5703 5701 5700 5698 5695 5693 5692 5690 5688 5686 5685 5683 5680 5678 5676 5674 5672 5671 5670 5669 5668 5667 5667 5665 5664 5663 5662 5660 5659 5657 5654 5652 5649 5645 5640 5635 5631 5629 5629 5629 5630 5632 5634 5635 5636 5639 5640 5640
5763 5762 5761 5759 5758 5755 5754 5752 5750 5748 5747 5745 5742 5740 5737 5735 5733 5732 5731 5729 5727 5726 5725 5723 5722 5720 5719 5717 5716 5714 5712 5710 5709 5707 5705 5703 5701 5700 5698 5696 5694 5692 5690 5688 5685 5683 5681 5679 5678 5676 5673 5671 5669 5667 5666 5665 5664 5663 5663 5662 5661 5660 5659 5658 5656 5654 5652 5649 5646 5643 5639 5634 5629 5625 5622 5621 5622 5623 5626 5627 5628 5630 5632 5632 5634
5760 5758 5757 5755 5754 5752 5750 5748 5746 5744 5743 5742 5740 5737 5734 5732 5730 5728 5727 5725 5724 5723 5721 5720 5719 5717 5715 5714 5712 5710 5709 5707 5706 5704 5702 5700 5698 5696 5694 5692 5690 5688 5686 5684 5681 5679 5676 5674 5673 5671 5668 5667 5665 5663 5661 5660 5659 5658 5658 5657 5657 5656 5655 5653 5652 5650 5648 5645 5641 5637 5633 5629 5624 5620 5617 5616 5616 5618 5620 5621 5622 5624 5625 5626 5627
5756 5755 5753 5751 5750 5748 5746 5744 5743 5741 5739 5738 5736 5734 5732 5729 5727 5725 5724 5722 5721 5720 5718 5717 5715 5714 5712 5710 5708 5707 5705 5704 5703 5701 5699 5697 5695 5693 5691 5688 5686 5684 5682 5680 5677 5674 5672 5670 5668 5666 5664 5662 5660 5658 5656 5655 5654 5654 5653 5652 5652 5651 5650 5649 5648 5646 5643 5641 5637 5633 5629 5624 5620 5616 5613 5612 5611 5613 5614 5616 5617 5618 5619 5620 5622
5753 5751 5750 5748 5746 5744 5743 5741 5739 5738 5735 5734 5732 5731 5729 5727 5725 5723 5721 5719 5718 5717 5715 5713 5712 5710 5709 5707 5705 5703 5702 5700 5699 5697 5695 5693 5691 5689 5687 5685 5682 5680 5678 5676 5673 5670 5668 5665 5663 5661 5659 5657 5655 5653 5651 5650 5649 5648 5648 5648 5647 5647 5646 5644 5643 5642 5639 5637 5633 5629 5625 5621 5616 5612 5610 5608 5608 5609 5610 5611 5612 5613 5614 5615 5616
5749 5748 5747 5745 5743 5741 5739 5737 5736 5734 5732 5730 5729 5728 5726 5724 5722 5720 5718 5716 5715 5713 5712 5710 5709 5707 5706 5704 5702 5700 5698 5696 5695 5693 5691 5689 5687 5685 5683 5680 5678 5676 5674 5671 5669 5666 5663 5661 5658 5656 5654 5652 5650 5648 5646 5644 5644 5643 5643 5643 5643 5642 5641 5640 5638 5637 5635 5633 5630 5626 5621 5617 5612 5609 5607 5606 5605 5605 5606 5607 5607 5608 5609 5610 5612
5744 5743 5742 5741 5739 5737 5735 5734 5732 5731 5729 5727 5725 5724 5723 5721 5719 5717 5715 5713 5711 5709 5708 5706 5704 5703 5702 5700 5698 5696 5694 5692 5690 5688 5686 5684 5682 5680 5678 5676 5674 5672 5669 5666 5664 5661 5659 5656 5654 5651 5649 5646 5644 5643 5641 5639 5639 5639 5639 5638 5638 5637 5637 5635 5634 5632 5630 5628 5626 5622 5618 5614 5609 5606 5604 5603 5602 5602 5603 5603 5603 5604 5605 5606 5607
5739 5738 5737 5736 5735 5734 5732 5730 5728 5726 5725 5722 5720 5719 5718 5716 5714 5713 5711 5709 5707 5705 5703 5701 5699 5698 5696 5695 5693 5691 5689 5687 5685 5683 5681 5679 5677 5675 5673 5671 5669 5667 5665 5662 5659 5656 5654 5651 5649 5647 5644 5641 5639 5638 5636 5635 5634 5634 5634 5634 5634 5633 5632 5631 5630 5628 5626 5624 5622 5619 5615 5611 5607 5604 5602 5601 5600 5599 5600 5600 5600 5600 5601 5602 5602
5733 5732 5732 5731 5730 5729 5727 5725 5723 5721 5719 5717 5715 5714 5712 5711 5709 5707 5706 5704 5702 5700 5698 5696 5694 5692 5691 5689 5687 5685 5683 5681 5679 5678 5676 5674 5672 5670 5668 5666 5664 5662 5660 5657 5654 5651 5649 5647 5645 5642 5639 5636 5634 5633 5631 5630 5630 5629 5629 5629 5629 5629 5627 5626 5625 5624 5622 5619 5617 5615 5612 5608 5605 5601 5599 5598 5597 5596 5596 5596 5596 5596 5596 5597 5598
5727 5726 5725 5725 5724 5723 5721 5719 5717 5714 5712 5710 5709 5708 5706 5705 5703 5701 5700 5698 5696 5694 5693 5691 5689 5687 5685 5684 5682 5680 5677 5675 5673 5672 5670 5668 5667 5665 5663 5661 5658 5656 5654 5652 5649 5647 5645 5642 5640 5637 5634 5632 5629 5628 5627 5626 5625 5625 5625 5625 5625 5624 5623 5622 5621 5620 5618 5615 5613 5611 5608 5605 5602 5599 5597 5595 5594 5594 5593 5593 5593 5593 5593 5593 5594
5723 5721 5720 5719 5718 5716 5715 5713 5711 5708 5706 5704 5702 5701 5700 5698 5697 5695 5693 5691 5689 5688 5686 5685 5683 5682 5680 5678 5676 5674 5672 5669 5667 5665 5664 5662 5661 5659 5657 5655 5652 5650 5648 5647 5644 5642 5640 5638 5635 5632 5630 5627 5625 5624 5623 5622 5621 5621 5620 5620 5620 5620 5619 5618 5616 5615 5614 5612 5609 5607 5604 5602 5599 5596 5594 5593 5592 5591 5590 5590 5590 5590 5589 5590 5590
5717 5716 5715 5713 5711 5710 5708 5706 5704 5702 5700 5698 5697 5695 5694 5692 5690 5688 5686 5684 5682 5680 5679 5678 5676 5675 5673 5671 5670 5668 5666 5663 5661 5659 5658 5656 5654 5652 5651 5648 5646 5644 5643 5641 5639 5638 5636 5633 5630 5628 5625 5623 5621 5620 5619 5618 5617 5617 5616 5616 5616 5615 5615 5613 5612 5611 5610 5608 5605 5603 5601 5598 5595 5593 5591 5590 5588 5588 5587 5587 5586 5586 5586 5586 5586
5710 5709 5708 5706 5705 5703 5701 5698 5696 5695 5693 5692 5691 5689 5687 5685 5683 5681 5679 5677 5675 5673 5672 5670 5669 5667 5666 5664 5663 5661 5659 5657 5655 5653 5651 5649 5648 5646 5644 5642 5640 5639 5637 5636 5634 5633 5631 5629 5626 5624 5621 5619 5617 5616 5614 5613 5613 5612 5612 5612 5611 5611 5610 5609 5608 5607 5606 5604 5601 5599 5598 5595 5592 5590 5588 5587 5585 5584 5583 5583 5583 5583 5583 5583 5583
5703 5702 5701 5700 5698 5696 5693 5691 5689 5687 5686 5685 5684 5682 5679 5677 5676 5674 5672 5670 5668 5666 5664 5663 5662 5660 5659 5658 5656 5655 5653 5651 5649 5646 5644 5643 5641 5639 5638 5636 5635 5633 5632 5630 5629 5628 5626 5624 5622 5619 5617 5615 5613 5611 5610 5609 5608 5608 5608 5607 5607 5607 5606 5605 5604 5603 5602 5600 5598 5595 5594 5592 5589 5587 5584 5583 5582 5581 5580 5579 5579 5579 5579 5579 5579
5696 5694 5693 5692 5690 5688 5686 5684 5682 5681 5679 5678 5676 5674 5672 5670 5669 5667 5665 5663 5661 5659 5658 5657 5655 5654 5652 5651 5650 5649 5647 5646 5643 5641 5639 5637 5635 5633 5632 5630 5629 5627 5625 5624 5624 5622 5621 5619 5617 5615 5612 5610 5608 5607 5605 5604 5603 5603 5603 5603 5602 5602 5601 5600 5600 5599 5598 5596 5594 5592 5589 5588 5586 5583 5581 5579 5578 5577 5576 5576 5575 5575 5575 5575 5575
5689 5687 5685 5684 5682 5681 5679 5677 5675 5674 5672 5670 5668 5667 5666 5664 5662 5660 5658 5656 5654 5652 5651 5649 5648 5646 5645 5644 5643 5642 5641 5640 5638 5635 5633 5632 5630 5627 5625 5624 5622 5620 5619 5619 5618 5617 5615 5613 5612 5610 5607 5605 5603 5602 5600 5599 5598 5598 5598 5598 5598 5597 5596 5596 5595 5594 5594 5592 5590 5588 5586 5584 5582 5580 5577 5575 5573 5573 5572 5571 5571 5571 5570 5570 5570
5682 5680 5678 5677 5675 5673 5671 5669 5667 5665 5663 5662 5661 5659 5658 5656 5654 5653 5651 5649 5647 5645 5643 5642 5641 5639 5638 5637 5636 5635 5634 5633 5631 5629 5627 5626 5624 5621 5619 5618 5616 5614 5613 5613 5612 5611 5610 5608 5606 5604 5602 5600 5598 5597 5595 5594 5593 5593 5593 5593 5593 5592 5592 5591 5591 5590 5589 5588 5586 5584 5582 5580 5578 5576 5574 5572 5570 5569 5568 5567 5567 5566 5566 5565 5566
5675 5673 5671 5670 5667 5666 5664 5663 5660 5657 5655 5654 5653 5651 5650 5648 5646 5645 5643 5642 5641 5639 5638 5636 5634 5633 5632 5631 5629 5628 5626 5625 5624 5623 5621 5619 5617 5615 5613 5611 5609 5608 5607 5607 5606 5605 5604 5602 5600 5599 5597 5595 5593 5591 5590 5589 5588 5587 5587 5588 5588 5588 5587 5587 5586 5585 5584 5583 5582 5580 5578 5576 5574 5572 5570 5568 5566 5565 5564 5563 5563 5562 5561 5561 5561
5667 5665 5663 5662 5660 5659 5658 5657 5654 5650 5648 5647 5646 5644 5642 5641 5639 5638 5636 5634 5633 5632 5631 5630 5628 5626 5624 5623 5622 5621 5619 5618 5616 5615 5614 5612 5610 5608 5607 5605 5603 5602 5601 5600 5600 5599 5597 5596 5595 5593 5592 5590 5588 5586 5585 5583 5582 5582 5582 5582 5582 5582 5582 5582 5581 5581 5580 5579 5577 5576 5574 5572 5570 5568 5566 5564 5563 5561 5560 5559 5558 5557 5556 5556 5556
5659 5657 5656 5655 5653 5651 5650 5649 5647 5644 5642 5640 5638 5636 5634 5633 5632 5630 5628 5627 5625 5624 5623 5623 5621 5619 5617 5616 5614 5613 5612 5611 5609 5608 5606 5604 5602 5601 5601 5599 5597 5596 5595 5594 5593 5592 5591 5590 5589 5587 5586 5584 5582 5580 5579 5578 5577 5576 5577 5577 5577 5577 5577 5577 5576 5576 5575 5574 5573 5571 5570 5568 5566 5564 5562 5560 5558 5556 5555 5555 5554 5553 5553 5552 5552
5651 5651 5649 5647 5646 5644 5643 5641 5640 5638 5636 5633 5631 5628 5627 5625 5623 5622 5621 5619 5618 5617 5616 5615 5613 5612 5610 5608 5606 5605 5604 5603 5602 5601 5600 5598 5596 5594 5593 5592 5591 5590 5590 5588 5587 5586 5585 5584 5582 5581 5580 5578 5576 5574 5573 5572 5572 5571 5571 5572 5572 5572 5572 5572 5571 5571 5570 5569 5568 5567 5565 5564 5562 5560 5558 5556 5554 5552 5551 5550 5550 5550 5549 5549 5548
5645 5643 5641 5639 5638 5637 5635 5634 5632 5630 5628 5625 5623 5621 5619 5617 5616 5614 5613 5612 5610 5609 5608 5607 5605 5604 5603 5601 5599 5598 5597 5596 5595 5594 5593 5591 5589 5587 5586 5585 5585 5584 5583 5582 5581 5580 5579 5578 5576 5575 5573 5572 5570 5568 5567 5566 5566 5566 5566 5567 5567 5567 5567 5566 5566 5565 5565 5564 5563 5562 5561 5559 5558 5556 5554 5552 5550 5548 5547 5546 5546 5546 5545 5545 5545
5637 5636 5633 5632 5630 5629 5627 5625 5624 5622 5620 5618 5616 5614 5612 5610 5608 5606 5605 5604 5603 5601 5600 5599 5597 5596 5595 5594 5592 5591 5590 5588 5587 5587 5586 5585 5583 5581 5579 5578 5578 5578 5577 5575 5574 5573 5573 5572 5570 5568 5567 5565 5563 5562 5561 5561 5560 5561 5561 5562 5562 5562 5561 5561 5560 5560 5560 5559 5558 5558 5556 5555 5553 5552 5550 5548 5546 5544 5543 5542 5542 5541 5541 5541 5540
5629 5628 5626 5625 5623 5621 5620 5618 5616 5614 5612 5610 5608 5606 5605 5603 5601 5599 5597 5596 5595 5594 5592 5591 5590 5588 5587 5585 5584 5583 5582 5581 5580 5580 5579 5578 5577 5575 5574 5573 5572 5571 5570 5569 5567 5567 5566 5566 5564 5563 5561 5559 5558 5557 5556 5555 5555 5555 5556 5556 5556 5556 5556 5555 5555 5555 5555 5554 5553 5553 5552 5550 5549 5547 5545 5543 5541 5540 5539 5538 5538 5537 5537 5536 5536
5622 5620 5618 5617 5615 5614 5612 5610 5609 5607 5605 5603 5601 5599 5597 5595 5593 5591 5590 5588 5587 5586 5584 5583 5581 5580 5578 5576 5575 5574 5574 5573 5572 5572 5571 5570 5569 5568 5568 5567 5566 5565 5563 5562 5561 5560 5560 5559 5558 5557 5556 5554 5553 5552 5551 5551 5550 5551 5551 5551 5551 5551 5550 5550 5550 5550 5549 5549 5548 5548 5547 5545 5544 5542 5540 5538 5537 5535 5534 5534 5534 5533 5533 5532 5532
5614 5612 5611 5609 5608 5606 5605 5603 5601 5599 5597 5595 5593 5591 5589 5587 5585 5583 5582 5580 5579 5577 5576 5574 5572 5571 5569 5568 5566 5566 5566 5565 5564 5564 5563 5562 5561 5560 5560 5559 5558 5557 5556 5556 5555 5554 5554 5553 5552 5551 5550 5549 5548 5547 5547 5547 5546 5546 5546 5546 5546 5545 5545 5545 5545 5544 5544 5544 5543 5543 5542 5541 5539 5537 5535 5533 5532 5530 5530 5529 5529 5529 5528 5528 5528
5606 5605 5604 5602 5600 5599 5597 5595 5593 5591 5589 5587 5585 5583 5581 5579 5577 5575 5573 5571 5570 5568 5567 5566 5564 5562 5560 5559 5558 5557 5557 5556 5556 5555 5554 5553 5553 5552 5551 5551 5550 5550 5549 5549 5548 5547 5547 5547 5547 5546 5545 5544 5543 5543 5542 5542 5542 5542 5542 5541 5541 5540 5539 5539 5539 5539 5539 5538 5538 5538 5537 5536 5535 5533 5531 5528 5527 5525 5525 5525 5525 5524 5524 5523 5523
5599 5598 5596 5594 5593 5591 5589 5587 5585 5583 5581 5578 5576 5574 5572 5570 5568 5566 5564 5562 5561 5560 5558 5557 5555 5554 5552 5551 5549 5549 5548 5547 5547 5547 5546 5546 5545 5544 5544 5543 5543 5543 5543 5542 5541 5540 5541 5540 5540 5539 5539 5539 5538 5538 5537 5537 5537 5538 5537 5536 5535 5535 5534 5534 5533 5533 5533 5533 5533 5533 5533 5532 5531 5529 5527 5524 5522 5521 5520 5520 5520 5519 5519 5518 5518
5591 5589 5587 5586 5584 5582 5580 5578 5576 5574 5572 5569 5567 5565 5563 5561 5559 5557 5555 5554 5553 5551 5550 5548 5547 5546 5545 5543 5542 5541 5540 5539 5539 5539 5539 5538 5537 5537 5537 5536 5535 5536 5536 5535 5533 5533 5534 5533 5533 5533 5533 5533 5533 5533 5532 5532 5532 5533 5532 5530 5529 5528 5528 5528 5528 5528 5528 5528 5528 5528 5529 5528 5526 5525 5522 5520 5519 5517 5516 5515 5515 5514 5514 5513 5513
5582 5581 5579 5577 5575 5573 5571 5569 5567 5565 5562 5560 5558 5556 5554 5552 5550 5548 5546 5545 5544 5543 5542 5541 5539 5538 5537 5536 5535 5534 5533 5532 5532 5531 5531 5530 5530 5530 5530 5529 5528 5529 5529 5527 5526 5527 5527 5526 5526 5526 5527 5527 5527 5527 5527 5526 5526 5526 5525 5523 5522 5522 5523 5523 5522 5522 5522 5523 5523 5524 5524 5523 5522 5520 5518 5516 5515 5513 5512 5511 5510 5510 5509 5509 5508
5574 5572 5570 5568 5567 5565 5562 5560 5558 5556 5554 5552 5550 5548 5546 5544 5542 5540 5539 5537 5536 5535 5535 5534 5532 5531 5530 5529 5528 5527 5526 5525 5525 5524 5523 5522 5522 5523 5523 5522 5521 5521 5521 5521 5520 5520 5520 5520 5520 5520 5521 5521 5521 5521 5520 5520 5520 5520 5519 5517 5516 5517 5517 5517 5516 5517 5517 5518 5519 5519 5519 5518 5517 5516 5514 5512 5511 5509 5508 5507 5506 5506 5505 5505 5504
5566 5564 5562 5560 5558 5556 5554 5552 5550 5548 5546 5544 5542 5540 5538 5537 5535 5533 5532 5531 5529 5528 5528 5527 5526 5525 5524 5523 5522 5521 5520 5519 5518 5518 5517 5516 5515 5516 5516 5515 5514 5514 5514 5514 5514 5514 5513 5513 5513 5514 5514 5514 5514 5514 5513 5513 5513 5513 5512 5511 5511 5511 5511 5510 5510 5511 5513 5513 5514 5515 5514 5514 5512 5511 5509 5508 5506 5505 5504 5503 5502 5502 5501 5501 5501
5558 5556 5554 5552 5550 5547 5545 5544 5542 5540 5539 5537 5536 5534 5532 5530 5528 5527 5525 5524 5523 5522 5521 5520 5519 5518 5517 5516 5515 5514 5514 5513 5512 5511 5510 5509 5509 5509 5509 5509 5508 5508 5507 5507 5507 5507 5507 5507 5507 5507 5507 5507 5507 5507 5507 5507 5507 5507 5506 5505 5505 5506 5505 5505 5506 5507 5508 5509 5510 5510 5510 5509 5508 5506 5505 5503 5502 5500 5500 5499 5498 5498 5497 5497 5497
5549 5547 5545 5544 5542 5540 5538 5537 5535 5534 5532 5531 5529 5527 5526 5524 5522 5520 5519 5518 5517 5516 5514 5513 5512 5511 5510 5510 5509 5508 5507 5506 5506 5505 5504 5503 5502 5502 5502 5502 5502 5501 5501 5501 5501 5501 5501 5500 5500 5500 5500 5499 5499 5499 5500 5500 5501 5501 5500 5500 5500 5500 5500 5500 5501 5502 5503 5504 5505 5506 5506 5505 5504 5503 5501 5499 5498 5497 5496 5495 5495 5494 5494 5494 5494
5542 5540 5538 5536 5535 5533 5532 5530 5529 5528 5526 5524 5523 5521 5519 5518 5516 5514 5512 5511 5510 5509 5508 5506 5505 5504 5503 5503 5502 5501 5500 5499 5499 5498 5497 5496 5496 5495 5495 5495 5494 5494 5494 5494 5494 5494 5493 5493 5493 5493 5493 5493 5493 5493 5493 5493 5494 5495 5495 5495 5495 5495 5495 5496 5496 5498 5499 5500 5501 5502 5502 5501 5500 5499 5498 5496 5495 5493 5492 5492 5491 5490 5490 5490 5490